Location: Chillicothe
(39.7950°N, 93.5520°W)
Time: 18:31:17
(UTC-06:00)

Vanguard 3 - Pass Details

Date: 22 October 2019
Orbit: 508 x 3263 km, 33.3° (Epoch: 14 November)

Event Time Altitude Azimuth Distance (km) Brightness Sun altitude
Rises 22:04:00 0° 209° (SSW) 3,808 - -42.1°
Reaches altitude 10° 22:09:41 10° 170° (S) 2,247 - -43.1°
Maximum altitude 22:10:31 10° 161° (SSE) 2,145 - -43.2°
Drops below altitude 10° 22:11:18 10° 151° (SSE) 2,100 - -43.4°
Sets 22:15:28 0° 107° (ESE) 2,711 - -44.1°
